Change the Weather History Date:

Tuesday, April 2, 2013

  Actual Average Record
Temperature  
Mean Temperature 38 °F -  
Max Temperature 41 °F 64 °F 84 °F (2012)
Min Temperature 35 °F 40 °F 24 °F (1962)
Degree Days  
Heating Degree Days 27    
Moisture  
Dew Point 31 °F    
Average Humidity 74    
Maximum Humidity 86    
Minimum Humidity 62    
Precipitation  
Precipitation 0.00 in - - ()
Sea Level Pressure  
Sea Level Pressure 30.27 in    
Wind  
Wind Speed 5 mph (ENE)    
Max Wind Speed 9 mph    
Max Gust Speed -    
Visibility 10 miles    
Events Rain    
Averages and records for this station are not official NWS values.
T = Trace of Precipitation, MM = Missing Value Source: NWS Daily Summary

Daily Weather History Graph

Daily Weather History Graph

Search for Another Location

Airport or City:

Trip Planner

Search our weather history database for the weather conditions in past years. The results will help you decide how hot, cold, wet, or windy it might be!

Date:

Astronomy

Apr. 02, 2013 Rise Set
Actual Time 7:05 AM CDT 7:45 PM CDT
Civil Twilight 6:39 AM CDT 8:12 PM CDT
Nautical Twilight 6:08 AM CDT 8:43 PM CDT
Astronomical Twilight 5:36 AM CDT 9:15 PM CDT
Moon 1:46 AM CDT (4/2) 12:02 PM CDT (4/2)
Length of Visible Light 13h 32m
Length of Day
12h 40m
Waning Gibbous, 55% of the Moon is Illuminated
Apr 2
Waning Gibbous
Apr 2
Last Quarter
Apr 10
New
Apr 18
First Quarter
Apr 25
Full

Hourly Weather History & Observations

Time (CDT) Temp. Windchill Dew Point Humidity Pressure Visibility Wind Dir Wind Speed Gust Speed Precip Events Conditions
12:52 AM 41.0 °F 39.0 °F 30.9 °F 67% 30.25 in 10.0 mi NNE 3.5 mph - 0.00 in Rain Light Rain
1:52 AM 39.9 °F 35.8 °F 30.9 °F 70% 30.25 in 10.0 mi NE 5.8 mph - 0.00 in   Overcast
3:52 AM 37.9 °F 31.5 °F 30.9 °F 76% 30.25 in 10.0 mi NE 9.2 mph - 0.00 in Rain Light Rain
4:52 AM 37.0 °F 32.4 °F 30.9 °F 79% 30.26 in 6.0 mi Variable 5.8 mph - 0.00 in Rain Rain
5:52 AM 37.0 °F 34.5 °F 30.9 °F 79% 30.29 in 10.0 mi NNE 3.5 mph - 0.00 in   Overcast
6:52 AM 37.0 °F 33.3 °F 28.9 °F 73% 30.29 in 10.0 mi Variable 4.6 mph - 0.00 in   Overcast
7:52 AM 37.0 °F 32.4 °F 28.9 °F 73% 30.30 in 10.0 mi ENE 5.8 mph - 0.00 in   Overcast
8:52 AM 35.1 °F 31.0 °F 28.9 °F 78% 30.31 in 8.0 mi ENE 4.6 mph - 0.00 in Rain Light Rain
9:52 AM 36.0 °F 32.1 °F 30.0 °F 79% 30.29 in 10.0 mi Variable 4.6 mph - 0.00 in   Overcast
10:52 AM 37.9 °F 33.5 °F 30.0 °F 73% 30.31 in 10.0 mi East 5.8 mph - N/A   Overcast
12:52 PM 41.0 °F 36.4 °F 30.9 °F 67% 30.30 in 10.0 mi Variable 6.9 mph - 0.00 in Rain Light Rain
1:52 PM 41.0 °F 37.1 °F 28.9 °F 62% 30.30 in 10.0 mi ENE 5.8 mph - 0.00 in   Overcast
2:52 PM 39.9 °F 35.1 °F 28.9 °F 65% 30.28 in 8.0 mi East 6.9 mph - 0.00 in Rain Light Rain
3:52 PM 41.0 °F 35.2 °F 28.9 °F 62% 30.26 in 9.0 mi ENE 9.2 mph - 0.00 in Rain Light Rain
4:52 PM 39.9 °F 36.7 °F 33.1 °F 77% 30.26 in 8.0 mi ENE 4.6 mph - 0.00 in Rain Light Rain
5:52 PM 39.9 °F - 34.0 °F 79% 30.26 in 10.0 mi Calm Calm - N/A Rain Light Rain
6:52 PM 41.0 °F 39.0 °F 32.0 °F 70% 30.25 in 10.0 mi East 3.5 mph - N/A   Overcast
7:52 PM 39.9 °F 37.8 °F 30.9 °F 70% 30.25 in 10.0 mi East 3.5 mph - N/A   Overcast
8:52 PM 39.0 °F - 33.1 °F 79% 30.25 in 10.0 mi Calm Calm - N/A   Scattered Clouds
9:52 PM 37.9 °F - 33.1 °F 83% 30.27 in 10.0 mi Calm Calm - N/A   Mostly Cloudy
10:52 PM 36.0 °F - 32.0 °F 86% 30.27 in 10.0 mi Calm Calm - N/A   Mostly Cloudy
11:52 PM 37.9 °F - 30.9 °F 76% 30.27 in 10.0 mi Calm Calm - N/A   Mostly Cloudy